Погода Новая Ладога

Погода Новая Ладога : погода сейчас, прогноз погоды и архив. Всё, что Вы хотите узнать о погоде Новая Ладога!

Хотите узнать прогноз погоды Новая Ладога? Тогда Вам сюда: Погода Новая Ладога

Поиск расширенной информации на нашем сайте:

Другие новости

Новости СМИ2

Главная страница сайта

Новости сайта

02.10.2013

Напоминаем, что на нашем новом сайте вы можете получить высокодетализированные прогнозы погоды по пунктам России, СНГ и мира (включающие важные для авиации метеовеличины, такие как направление и скорость ветра, видимость, явления погоды, количество и форма облачности, нижняя и верхняя граница облачности), а также ознакомиться с разнообразными материалами по авиационной метеорологии и подборкой полезных ссылок на эту тему.

Сайт Метеоцентр.Азия посвящён разработке технологий оптимизации авиаметеорологического обслуживания, включая проектирование и перспективное создание нескольких автоматизированных авиаметеорологических систем:
- система выпуска высокодетальных прогностических карт явлений погоды для нижнего воздушного пространства по России и ближнему зарубежью;
- система верификации прогнозов TAF (выпускаемых синоптиками официальных АМСГ РФ и ближнего зарубежья) и AUTOTAF (выпускаемых сайтом Метеоцентр.Азия) - выявление ошибок, онлайн-сопоставление с фактической погодой METAR, автоматическое внесение коррективов в прогнозы при резком отклонении фактической погоды от прогноза, подсчёт оправдываемости прогнозов по элементам и в целом;
- система обработки, анализа и отображения авиаметеорологической информации для применения провайдерами метеорологической информации.


Погода Новая Ладога - сегодня

Время (UTC), дата Ветер
(°,м/с) 
Видим.   Явления Облачность Т
(°С)
Тd
(°С)
f(%) Тe
(°С)
Pmin
(гПа)
dP
(гПа)
Po
(мм)
O2
(г/м3)
Тmin Tmax R s Состояние
почвы
06 23.04.17 340 (С) 20000 м    9/3 1000 м верхняя 
[Sc|Ci fib]
+2.5 +1.2 91 +2  994.9  2.1  745  297  +0.4    0.1  <0.5  мокрый или
старый снег
10-40% 
09 23.04.17 320 (СЗ) 20000 м    6/3 1000 м кучево-дожд., верхняя 
[Cb calv|Ci fib]
+3.2 +1.4 88 +2  997.5  2.6  747  297           
12 23.04.17 330 (СЗ) 20000 м    9/1 1000 м кучево-дожд., средняя, верхняя 
[Cb calv|Ac cuf|Ci sp]
+3.7 +1.6 86 +2  999.7  2.2  749  297           
15 23.04.17 340 (С) 20000 м    9/1 1000 м средняя, верхняя 
[Cu hum|Ac lent|Ci fib]
+5 +0.5 73 +4  1001.3  1.6  750  297           
18 23.04.17 280 (З) 20000 м    9/0 верхняя 
[Cs]
+3.7 +1.5 86 +3  1003.5  2.2  752  299    +5.1      затоплена
водой 
21 23.04.17 220 (ЮЗ) 20000 м    ясно 
+0.9 +0.6 98 +2  1004.5  753  302           
00 24.04.17 210 (ЮЗ) 20000 м    3/0 средняя 
[Ac lent]
+0.5 +0.5 100 +1  1005.4  0.9  753  303           
03 24.04.17 150 (ЮВ) 20000 м  {ливн. осадки}  9/3 600 м кучево-дожд., средняя 
[Cb cap|Ac cuf]
+1 +0.9 99 +2  1005.8  0.4  754  302  +0.5    0.1     
06 24.04.17 240 (ЮЗ) 20000 м  {ливн. осадки}  9/9 570 м 
[Sc]
+2.4 +1.7 95 +2  1006.6  0.8  754  301  +0.5    0.1     
09 24.04.17 160 (Ю) 20000 м    9/6 720 м кучево-дожд., средняя, верхняя 
[Cb calv|Ac cuf|Ci fib]
+5.5 +1 73 +6  1007.3  0.7  755  298           
12 24.04.17 160 (Ю) 4000 м  слаб. крупа{ливн. осадки}  10/8 240 м кучево-дожд., средняя 
[Cb cap|Ac cuf]
+1.2 +0.8 97 +2  1008.2  0.9  755  303           
15 24.04.17 180 (Ю) 20000 м  {ливн. осадки}  5/3 600 м кучево-дожд., средняя, верхняя 
[Cb cap|Ac cuf|Ci fib]
+2.6 +1.7 94 +2  1007.9  -0.3  755  301         
18 24.04.17 150 (ЮВ) 20000 м  {ливн. осадки}  4/0 средняя, верхняя 
[Ac lent|Ci fib]
+1.4 +1.2 99 +2  1008.8  0.9  756  303    +5.7     
21 24.04.17 150 (ЮВ) 20000 м    9/9 1500 м 
[Sc]
+1.2 +0.9 98 +2  1009  0.2  756  303           
00 25.04.17 160 (Ю) 20000 м    3/0 верхняя 
[Ci sp]
-0.4 -0.4 100 1009.1  0.1  756  305           
03 25.04.17 170 (Ю) 20000 м    3/0 средняя 
[Ac lent]
-0.3 -0.3 100 -1  1009.2  0.1  756  305  -0.6    0.3     
06 25.04.17 170 (Ю) 20000 м    ясно 
+3.6 +1.1 84 +4  1009.9  0.7  757  301  -0.6         
09 25.04.17 160 (Ю) 20000 м    9/8 1500 м верхняя 
[Cu med, cong|Ci fib]
+8.4 -0.9 52 +8  1009.8  757  296           
12 25.04.17 150 (ЮВ) 20000 м    9/6 1200 м кучево-дожд., средняя, верхняя 
[Cb calv|Ac cuf|Ci sp]
+9.7 -3.1 40 +9  1008.7  -1.1  756  294           
15 25.04.17 140 (ЮВ) 20000 м    10/5 1000 м кучево-дожд., средняя 
[Cb calv|Ac cuf]
+9.3 -3 42 +9  1007.5  -1.2  755  294           
18 25.04.17 150 (ЮВ) 3{10}  10 км  слаб. ливневой дождь  10/10 750 м кучево-дожд. 
[Cb cap]
+4.9 +2.8 86 +4  1007.1  -0.3  755  298    +10.2  0.6     
21 25.04.17 140 (ЮВ) 20000 м  {ливн. осадки}  10/0 средняя 
[Ac und]
+7.2 +1.4 67 +7  1003.1  -4  752  295           
00 26.04.17 140 (ЮВ) 6-12{12}  4000 м  слаб. ливневой дождь  10/10 360 м кучево-дожд. 
[Cb cap]
+6.8 +1.2 67 +5  998.9  -4.1  748  294           
03 26.04.17 160 (Ю) 4{14}  10 км  слаб. ливневой дождь  10/10 600 м кучево-дожд. 
[Cb cap]
+5.3 +4.3 93 +4  994.9  -3.9  745  294  +4.7       
06 26.04.17 220 (ЮЗ) 20000 м  {ливн. осадки}  9/9 600 м кучево-дожд. 
[Cb calv]
+4 +2.3 89 +2  998.3  3.3  748  297  +4       
Время (UTC), дата Ветер
(°,м/с) 
Видим.   Явления Облачность Т
(°С)
Тd
(°С)
f(%) Тe
(°С)
Pmin
(гПа)
dP
(гПа)
Po
(мм)
O2
(г/м3)
Тmin Tmax R s Состояние
почвы

Для получения пояснительной информации подведите курсор к названию столбца.

ПОГОДА Новая Ладога - архив

Всё, что Вы хотите узнать о погоде Новая Ладога - удобно и подробно!

Выберите нужную дату (начиная с 1 января 2015* года) и нажмите кнопку "Найти".
Будут отображены архивные сводки погоды по пункту Новая Ладога, начиная с указанной даты.


Отображать данные в формате CSV (для использования в таблицах Excel)


Внимание! Наш архив погоды предназначен исключительно для личного некоммерческого использования в познавательных целях. Если Вам необходимы официальные справки о состоянии погоды (для производственных, юридических, коммерческих и т.п. целей), обращайтесь в органы Росгидромета.

*Примечание: данная дата относится к архиву по метеостанциям СССР (Россия, СНГ, Балтия).
Архив по метеостанциям Зарубежной Европы и Азии (кроме Китая) хранится 10 дней, по другим регионам земного шара (Китай, Африка, Америка, Австралия, Океания) - 1 день.

Новая Ладога - район местоположения метеостанции


Название, широта, долгота, высота метеостанции:
Новая Ладога 60.1°ш. 32.3°д. 9 м над ур. моря [Российская Федерация]

Дополнительная информация

В oтличие oт бoльшинства пoгoдных сайтoв мы публикуем пoдрoбную метеoинфoрмацию в детальнoм прoфессиoнальнoм фoрмате.

Характеристики температуры и влажнoсти вoздуха измеряются на высoте 2 м в тени вдали oт зданий и деревьев.
Скoрoсть ветра измеряется на высoте 10 м (на урoвне рoста челoвека скoрoсть ветра ниже в 1.5-2 раза). Если метеoстанция нахoдится в гoрoде или в лесу, тo скoрoсть ветра занижена на 2-4 м/с пo сравнению с oткрытым местoм. Скoрoсть ветра над акватoриями крупных рек и oзёр, а также на вершинах хoлмoв на 2-5 м/с выше, чем в oбычных услoвиях.
Атмoсфернoе давление в разных тoчках местнoсти мoжет значительнo oтличаться oт давления на метеoстанции, в зависимoсти oт услoвий рельефа (при пoдъёме на 10 м давление пoнижается примернo на 1 мм рт.ст.).